RH
95 100 99 100 99 84 77 34 14 11 12 13 14 15 15 15 15 15 16 17 18 22 22 20 19 16 16 16 16 16 16 21 20 42 42 42 41 40
100 99 100 99 100 94 81 38 16 17 17 14 14 15 16 18 20 19 17 17 19 21 20 19 17 16 18 18 19 18 17 22 31 42 41 44 47 43
100 95 96 97 97 100 97 62 46 45 66 35 25 16 18 19 20 19 18 18 19 22 19 18 18 18 21 21 21 20 20 26 39 41 45 49 47 48
96 93 97 98 99 98 99 99 96 96 66 19 16 17 20 21 22 20 19 18 19 20 19 18 20 22 23 23 23 21 24 41 47 45 45 49 46 47
87 97 98 98 86 92 92 99 97 89 65 29 24 19 22 22 25 22 21 20 19 18 18 21 22 24 25 25 26 25 36 50 48 47 47 47 51 51
94 100 96 99 89 91 85 96 93 74 67 85 36 21 26 44 46 30 28 28 23 21 24 23 22 26 25 25 28 29 49 43 49 47 46 52 52 47
99 100 100 99 93 91 100 99 100 98 98 47 30 33 62 67 35 38 45 40 34 25 26 25 26 26 24 26 30 48 44 51 51 53 54 53 52 42
91 98 97 100 100 98 97 99 100 91 100 94 69 58 31 40 64 64 62 51 64 70 67 45 45 30 29 30 37 46 52 52 51 58 58 58 44 40
86 73 83 85 95 97 80 94 94 99 100 94 56 48 63 71 73 55 40 49 60 85 99 86 32 50 42 33 46 51 52 52 59 60 62 46 41 34
98 100 91 99 97 100 100 100 100 100 94 85 95 67 56 54 49 47 44 60 94 100 83 48 59 34 37 42 54 50 53 61 66 61 52 43 34 32
80 98 95 100 100 88 100 99 100 99 98 93 98 84 44 44 46 58 81 96 98 97 72 63 33 38 50 59 50 54 57 70 65 57 44 36 32 27
95 97 89 93 100 99 91 100 99 95 91 96 94 91 84 95 96 98 100 100 99 97 72 54 40 52 67 52 55 53 68 69 67 44 39 34 28 21
82 98 78 89 98 94 88 98 97 99 97 98 99 100 100 99 100 98 100 100 99 99 97 64 59 67 53 58 56 81 72 74 48 43 37 32 25 18
80 95 80 76 100 92 97 97 96 98 90 99 100 98 99 97 99 100 99 99 100 100 96 93 83 62 60 61 80 73 78 53 44 37 35 28 20 16
80 98 88 81 96 100 94 99 94 98 100 100 97 96 94 100 100 98 100 98 99 99 98 97 68 66 65 73 78 76 54 46 38 36 28 20 17 14
86 96 90 86 99 99 97 99 98 98 99 100 93 100 100 97 96 98 100 98 99 99 100 86 75 70 63 87 79 57 45 41 36 31 24 18 15 12
89 99 87 100 98 94 97 77 99 100 99 99 98 100 94 99 100 96 98 100 100 99 97 85 71 75 90 81 58 41 45 39 34 27 20 16 12 9
99 92 100 100 99 97 74 79 100 86 84 91 99 98 92 93 84 96 99 100 99 99 91 66 85 98 83 62 44 47 39 37 29 24 19 14 9 8
88 96 100 98 98 83 72 81 81 95 98 93 98 100 97 100 88 100 100 100 100 97 64 79 100 98 70 50 50 45 40 32 27 21 16 9 7 8
92 99 99 95 88 92 84 91 87 83 94 82 75 96 100 98 99 99 100 99 98 74 73 99 100 85 59 49 47 41 37 31 26 19 12 8 7 10
84 98 98 100 100 98 90 86 79 88 83 84 85 96 98 100 99 100 99 99 90 84 96 99 97 76 55 54 43 40 34 28 22 15 10 6 4 9
98 93 94 98 99 98 89 84 86 90 87 85 98 100 100 100 100 100 98 99 94 99 99 97 93 67 59 49 44 39 33 25 19 12 8 5 4 8
98 95 93 99 97 92 91 87 84 86 94 94 99 100 100 99 100 99 98 98 97 99 100 99 87 62 56 47 44 37 30 22 15 11 7 6 11 16
Wind_Speed
54 51 50 50 42 41 42 38 34 32 29 30 28 28 28 28 25 23 24 23 22 21 21 21 21 22 24 25 27 29 31 31 30 35 37 42 45 44
55 59 48 41 45 43 43 40 35 33 30 29 31 30 30 28 26 25 24 24 23 22 21 21 22 22 25 26 28 30 31 32 33 35 42 45 48 41
42 42 45 39 43 42 43 41 40 37 32 35 34 33 31 28 26 24 25 25 25 24 20 20 23 22 25 27 29 31 32 32 33 39 42 47 46 43
51 42 42 40 36 38 43 45 50 46 38 35 33 33 30 27 27 25 24 25 23 22 21 21 24 24 27 29 31 31 31 32 39 43 48 51 46 49
39 47 48 35 31 35 33 41 42 41 40 35 36 33 30 32 28 25 23 23 23 24 23 23 24 25 28 30 32 32 32 37 47 47 49 49 49 52
40 53 38 31 34 35 38 41 43 42 41 40 38 35 33 30 30 32 25 24 26 28 24 24 26 27 29 33 34 32 35 44 48 48 50 49 50 47
53 48 43 41 42 46 47 42 36 36 39 38 37 35 38 35 32 28 27 29 28 27 29 27 28 28 31 34 33 33 42 48 47 48 47 50 46 45
47 45 47 53 48 49 44 37 37 37 34 37 37 33 34 33 34 38 43 36 31 34 34 30 35 32 33 34 34 41 48 44 48 46 49 45 43 36
43 42 46 43 42 42 45 43 42 39 39 37 35 35 34 36 38 33 35 39 41 48 46 32 32 35 37 35 36 42 44 46 44 47 45 43 36 39
55 44 44 40 42 41 46 43 43 38 35 32 39 39 39 40 40 40 42 43 43 45 27 32 34 34 32 34 41 42 43 42 43 46 42 37 37 42
53 51 50 47 42 44 41 36 38 36 34 36 38 40 40 37 39 41 43 43 40 31 29 29 32 32 34 39 38 40 41 39 42 40 37 37 42 45
51 47 55 51 38 46 44 40 36 31 29 31 31 34 38 36 32 31 42 39 32 30 30 31 32 33 37 33 37 40 37 37 37 36 34 40 45 47
52 48 51 50 44 44 43 44 34 27 32 32 32 33 31 31 34 31 36 33 31 34 33 32 32 33 31 34 33 34 33 34 31 28 36 42 43 47
55 48 49 48 45 48 46 45 45 38 38 38 38 41 38 34 32 31 29 28 30 35 33 33 29 28 30 30 31 28 33 29 22 28 35 39 41 44
53 48 47 45 46 41 42 37 44 41 39 39 40 37 29 32 30 31 27 28 31 31 30 28 26 29 27 28 26 26 24 22 22 27 34 39 41 45
63 48 46 50 44 48 47 47 52 45 39 41 42 36 31 35 28 27 28 29 31 31 30 25 26 26 26 25 24 22 20 19 24 28 30 39 42 46
68 51 51 55 57 55 53 52 49 48 45 44 41 35 35 30 30 31 31 32 32 31 27 22 21 24 22 21 20 18 16 22 27 28 30 35 41 45
59 62 52 55 55 50 48 53 52 50 49 50 43 39 36 35 30 31 33 36 28 28 22 18 20 20 18 19 18 13 15 21 27 31 34 35 39 43
59 63 55 62 52 52 49 52 53 49 48 47 46 40 38 34 33 36 31 30 28 24 19 18 18 21 17 19 12 12 17 21 25 30 33 38 42 41
64 59 58 58 56 52 51 52 50 48 44 41 39 37 34 32 34 35 35 33 28 22 19 17 20 18 17 13 11 14 18 22 24 27 28 32 35 35
66 59 59 58 55 56 52 48 45 45 43 40 38 40 36 37 35 36 35 31 27 22 19 19 19 17 15 11 11 13 17 21 23 27 31 33 33 32
57 62 61 59 52 51 49 49 44 45 41 42 39 42 39 39 39 39 38 32 26 22 21 21 18 16 13 11 12 15 19 21 25 28 34 38 39 41
57 59 56 57 52 52 53 49 48 46 45 41 41 38 37 39 40 38 36 31 27 25 22 18 18 15 13 12 10 14 17 21 25 31 34 35 35 36
Wind_Direction
234 231 234 237 225 221 228 229 229 227 230 234 235 239 241 242 244 247 252 256 261 265 273 279 283 292 299 306 309 312 314 317 318 326 330 329 326 325
222 229 232 240 225 214 224 221 224 228 230 237 242 240 242 244 247 251 255 256 261 265 270 280 285 295 301 304 309 312 313 314 318 323 328 328 325 324
223 235 222 236 226 230 230 222 223 229 234 236 240 239 241 244 248 253 256 259 258 263 273 280 287 296 301 305 309 311 310 313 320 326 326 331 328 322
217 219 226 229 228 226 231 240 232 234 226 236 236 240 242 249 249 251 253 258 263 269 274 283 288 297 300 304 305 308 312 318 326 325 327 327 324 323
219 220 218 212 211 220 230 236 235 236 230 229 237 238 239 244 246 248 256 260 266 270 277 280 290 295 298 301 306 308 313 321 323 324 324 324 326 326
207 207 200 208 207 211 217 227 231 231 233 236 234 235 238 246 260 257 253 261 268 273 274 280 286 290 300 302 304 312 315 316 320 322 323 324 329 327
210 207 213 218 214 219 226 233 236 241 239 232 236 240 247 247 244 250 262 266 268 275 281 280 281 289 294 296 306 311 314 318 318 320 322 326 328 330
216 218 217 214 221 225 226 226 239 243 246 239 237 241 238 240 257 261 267 262 269 272 276 282 285 286 295 300 305 313 314 315 321 321 322 325 328 332
204 211 214 214 212 215 218 227 231 238 242 235 232 238 246 249 255 252 253 259 263 267 277 276 277 290 286 297 309 313 312 317 319 321 323 325 331 333
213 214 210 218 216 217 215 224 234 234 235 240 246 231 233 239 244 247 255 265 278 284 269 267 275 278 292 302 306 308 313 317 318 322 322 327 332 333
212 214 213 212 218 223 220 232 229 235 236 245 234 232 239 244 250 260 268 273 278 267 261 269 273 282 289 298 303 309 314 316 319 320 324 327 331 332
211 215 218 216 214 219 224 227 228 228 231 236 238 241 244 251 259 270 270 277 268 259 259 266 272 279 289 294 303 308 313 318 320 324 326 330 332 332
216 217 213 213 220 216 220 222 224 225 231 234 239 243 246 257 264 259 268 265 264 256 258 262 272 283 288 300 305 311 313 317 322 325 329 329 331 331
221 218 217 216 221 215 227 224 226 231 238 234 237 245 250 254 258 268 260 267 269 262 270 265 274 281 292 301 309 312 314 318 326 327 326 327 330 331
218 222 216 219 221 216 220 220 223 222 230 235 241 246 252 249 249 252 251 263 264 267 273 266 272 283 294 303 307 314 312 314 324 332 330 327 330 332
220 223 215 215 220 214 220 222 228 230 234 236 237 243 243 246 257 249 252 260 260 267 261 259 273 285 292 300 309 309 311 317 330 335 332 330 334 335
215 213 214 211 222 215 218 223 226 228 230 233 232 236 238 241 242 256 255 257 257 260 256 260 273 284 296 305 304 308 314 326 334 334 336 335 335 339
210 207 209 211 210 218 222 223 226 231 231 234 234 238 240 246 255 250 254 254 249 252 247 255 271 285 296 298 304 302 319 332 334 335 334 338 342 342
221 214 211 217 223 221 223 224 227 232 235 233 241 233 240 241 247 246 248 243 242 239 234 250 268 286 290 301 288 299 326 336 336 332 336 344 345 347
218 215 211 219 220 222 223 223 226 228 233 237 236 233 236 244 252 239 249 235 232 220 233 246 266 276 292 285 282 313 332 334 333 330 340 348 346 351
215 210 206 208 214 217 221 222 224 226 231 232 233 230 242 242 239 240 230 228 213 218 229 246 265 278 282 264 289 316 329 330 329 335 343 347 352 354
213 212 210 212 211 219 221 218 223 225 225 227 232 233 233 236 233 227 226 214 204 213 225 247 260 272 256 257 292 322 328 328 332 343 346 351 351 358
214 214 216 220 224 224 218 221 223 226 225 228 226 225 228 231 227 224 222 198 201 213 230 243 259 250 229 249 295 316 325 327 337 348 349 350 353 360